Regional Weather Roundup
Issued by NWS

Home | Current Version | Previous Version | Graphics & Text | Print | Product List | Glossary On
Versions: 1 2 3 4 5 6 7 8 9 10 11 12 13 14 15 16 17 18 19 20 21 22 23 24 25 26 27 28 29 30 31 32 33 34 35 36 37 38 39 40 41 42 43 44 45 46 47 48 49 50
000
ASUS43 KMPX 171601
RWRMN
WEATHER ROUNDUP FOR MINNESOTA
NATIONAL WEATHER SERVICE TWIN CITIES/CHANHASSEN MN
1100 AM CDT THU APR 17 2014


NOTE: "FAIR" INDICATES FEW OR NO CLOUDS BELOW 12,000 FEET WITH NO
SIGNIFICANT WEATHER AND/OR OBSTRUCTIONS TO VISIBILITY. N/A MEANS
CURRENT SKY AND/OR WEATHER CONDITIONS ARE NOT AVAILABLE.

MNZ060>063-068>070-171700-
   Twin Cities Metro

CITY           SKY/WX    TMP DP  RH WIND       PRES   REMARKS
TWIN CITIES    CLOUDY    31  27  85 NW13      30.27R WCI  21
ST PAUL        CLOUDY    32  27  81 NW13      30.27R WCI  22
CRYSTAL        CLOUDY    32  25  75 N10       30.26R WCI  24
EDEN PRAIRIE   CLOUDY    33  27  78 NW12      30.26R WCI  24
LAKEVILLE      CLOUDY    30  27  86 NW10      30.26R WCI  21
SOUTH ST PAUL  CLOUDY    35  31  87 NW13      30.26R WCI  26
LAKE ELMO      CLOUDY    32  30  93 NW12      30.25R WCI  23
$$
MNZ001>005-007-008-013>017-022>024-027-028-171700-
   Northwest Minnesota

CITY           SKY/WX    TMP DP  RH WIND       PRES   REMARKS
BEMIDJI        SUNNY     35   8  31 N10G16    30.28S WCI  28
HALLOCK        CLOUDY    32  16  51 NW7       30.37S WCI  26
ROSEAU         SUNNY     34  10  37 NE5       30.34F WCI  30
WARROAD        SUNNY     28   9  43 NE6       30.36S WCI  22
THIEF RVR FALL SUNNY     34   9  35 N5        30.34S WCI  30
CROOKSTON      SUNNY     34  18  51 N6        30.36S WCI  29
FOSSTON        SUNNY     36  12  38 N3        30.32S
DETROIT LAKES  SUNNY     36  10  35 N9        30.30S
MOORHEAD       SUNNY     34  23  64 NW7       30.35S WCI  28
PARK RAPIDS    SUNNY     34   9  35 N13       30.27R WCI  25
$$
MNZ006-009>011-018-025>026-171700-
   North Central Minnesota

CITY           SKY/WX    TMP DP  RH WIND       PRES   REMARKS
BAUDETTE       SUNNY     33  13  43 NW12      30.31F WCI  24
FLAG ISLAND    SUNNY     27  12  54 NW7       30.35S WCI  19
INTL FALLS     CLOUDY    30  18  60 NE9       30.29S WCI  22
WASKISH        SUNNY     37  14  38 NE8       30.29S
BIG FORK       MOSUNNY   34  19  55 N7        30.26R WCI  28
LONGVILLE      SUNNY     34  21  60 NW8       30.25S WCI  27
GRAND RAPIDS   PTSUNNY   30  19  64 NW10      30.24R WCI  21
CRANE LAKE     CLOUDY    30  25  80 N8        30.28S WCI  23
ORR            CLOUDY    30  19  64 CALM      30.23R
COOK           CLOUDY    28  21  74 N7        30.24R WCI  21
$$
MNZ012-019>021-037-171700-
   Northeast Minnesota

CITY           SKY/WX    TMP DP  RH WIND       PRES   REMARKS
DULUTH         PTSUNNY   29  22  75 N9        30.18R WCI  20
ELY            LGT SNOW  28  25  86 N6        30.21R WCI  22
HIBBING        CLOUDY    32  23  69 N10       30.22R WCI  24
EVELETH        CLOUDY    32  25  74 N8        30.22R WCI  25
DULUTH HARBOR  CLOUDY    34  27  75 NW10      30.22R WCI  26
TWO HARBORS    CLOUDY    30  23  74 N6        30.16R WCI  24
SILVER BAY     LGT SNOW  30  27  86 NW8       30.16R WCI  23
GRAND MARAIS     N/A     33  29  85 NE14G22   30.19R WCI  23
G MARAIS ARPRT LGT SNOW  28  23  80 NE12G17   30.14S WCI  18
$$
MNZ029>031-032-039>041-046>048-054>057-064-171700-
   West Central Minnesota

CITY           SKY/WX    TMP DP  RH WIND       PRES   REMARKS
FERGUS FALLS   SUNNY     36  10  35 N7        30.30F
WHEATON        SUNNY     37  25  60 N7        30.35S
MORRIS         SUNNY     34  21  60 N12       30.30S WCI  25
ALEXANDRIA     SUNNY     31  19  61 N12       30.29R WCI  22
ELBOW LAKE     FAIR      33  18  55 N9        30.31S WCI  25
WADENA         SUNNY     32  19  59 N10       30.28S WCI  24
GLENWOOD       SUNNY     32  21  64 N12       30.29R WCI  23
APPLETON       SUNNY     34  23  64 N9        30.33R WCI  26
BENSON         SUNNY     32  21  64 N9        30.31S WCI  24
ORTONVILLE     SUNNY     30  19  64 N6        30.33R WCI  24
MADISON        SUNNY     34  23  64 NW9       30.33R WCI  26
WILLMAR        FAIR      32  21  64 NW9       30.30R WCI  24
$$
MNZ033>034-036-042>043-049>051-058-059-171700-
   Central Minnesota

CITY           SKY/WX    TMP DP  RH WIND       PRES   REMARKS
ST CLOUD       SUNNY     33  22  63 N9        30.27R WCI  25
SAUK CENTRE    FAIR      31  20  63 NW12      30.28S WCI  22
PAYNESVILLE    SUNNY     29  21  71 NW10      30.29R WCI  20
AITKIN         MOSUNNY   36  23  60 N8        30.23R
PINE RIVER     SUNNY     32  21  64 NW8       30.29R WCI  25
BRAINERD       SUNNY     38  22  52 N10       30.25R
STAPLES        SUNNY     32  19  59 N9        30.27S WCI  24
LONG PRAIRIE   FAIR      30  21  69 NW8       30.28R WCI  23
LITTLE FALLS   SUNNY     32  21  64 NW8       30.26S WCI  25
LITCHFIELD     SUNNY     30  25  80 NW10      30.29R WCI  21
BUFFALO        CLOUDY    32  24  72 N9        30.28R WCI  25
MAPLE LAKE     MOSUNNY   34  26  74 N10       30.27R WCI  26
$$
MNZ037-044-045-052-053-171700-
   East Central Minnesota

CITY           SKY/WX    TMP DP  RH WIND       PRES   REMARKS
PRINCETON      PTSUNNY   34  25  69 NW13      30.26R WCI  25
MORA           CLOUDY    34  25  69 NW10      30.26R WCI  26
CAMBRIDGE      CLOUDY    34  25  69 NW8       30.23R WCI  27
RUSH CITY      CLOUDY    32  26  78 N8G16     30.24R WCI  25
MOOSE LAKE     CLOUDY    32  25  74 N8        30.21R WCI  25
HINCKLEY       CLOUDY    32  27  80 N9        30.23R WCI  24
CLOQUET        CLOUDY    28  23  80 NW10      30.20R WCI  19
MCGREGOR       CLOUDY    32  25  74 N8        30.24R WCI  25
$$
MNZ071>073-080-081-089-090-097-098-171700-
   Southwest Minnesota

CITY           SKY/WX    TMP DP  RH WIND       PRES   REMARKS
MONTEVIDEO     SUNNY     36  23  60 N9        30.33R
GRANITE FALLS  SUNNY     31  20  65 NW9       30.34R WCI  23
CANBY          SUNNY     30  21  69 NW8       30.34S WCI  23
MARSHALL       SUNNY     28  19  69 NW12      30.32R WCI  18
REDWOOD FALLS  SUNNY     29  21  72 NW12      30.31R WCI  19
OLIVIA         SUNNY     30  25  80 NW9       30.29S WCI  22
PIPESTONE      SUNNY     30  23  74 NE10      30.29S WCI  21
WINDOM         PTSUNNY   28  25  86 NW12      30.30R WCI  18
WORTHINGTON    CLOUDY    28  21  74 N12       30.32R WCI  18
JACKSON        PTSUNNY   30  27  86 NW16      30.30R WCI  19
TRACY          SUNNY     29  22  75 N10       30.32R WCI  20
SLAYTON        SUNNY     28  24  82 N12       30.31R WCI  18
$$
MNZ065>067-074>077-082>085-091>093-171700-
   South Central Minnesota

CITY           SKY/WX    TMP DP  RH WIND       PRES   REMARKS
MANKATO        CLOUDY    30  27  86 NW13      30.29R WCI  20
NEW ULM        SUNNY     30  27  86 NW10      30.30R WCI  21
ST JAMES       CLOUDY    30  27  86 NW13      30.32R WCI  20
FAIRMONT       CLOUDY    27  21  80 NW12      30.32R WCI  16
GLENCOE        PTSUNNY   32  24  72 N9        30.28R WCI  24
FARIBAULT      CLOUDY    34  27  75 NW10      30.26R WCI  26
OWATONNA       CLOUDY    32  28  86 W12       30.26R WCI  23
WASECA         CLOUDY    34  30  86 NW10      30.28R WCI  26
ALBERT LEA     CLOUDY    30  28  93 NW8       30.25R WCI  23
$$
MNZ078>079-086>088-094>096-171700-
   Southeast Minnesota

CITY           SKY/WX    TMP DP  RH WIND       PRES   REMARKS
ROCHESTER      CLOUDY    33  30  88 NW17      30.21R FOG     WCI  22
RED WING       CLOUDY    34  30  86 NW9       30.23R WCI  26
STANTON        CLOUDY    34  29  83 NW12      30.24R WCI  25
DODGE CENTER   CLOUDY    34  32  93 NW13      30.23R WCI  25
WINONA         CLOUDY    37  32  81 NW14      30.21R
AUSTIN         CLOUDY    30  28  93 NW14      30.24R WCI  20
PRESTON        CLOUDY    35  32  89 NW14      30.20R WCI  25
$$
ABBREVIATIONS USED IN REMARKS
   TC - TEMPERATURES IN CELSIUS
  WCI - WIND CHILL INDEX
   HX - HEAT INDEX
  VSB - VISIBILITY
$$



USA.gov is the U.S. government's official web portal to all federal, state and local government web resources and services.